Regional Weather Roundup
Issued by NWS

Home | Current Version | Previous Version | Text Only | Print | Product List | Glossary Off
Versions: 1 2 3 4 5 6 7 8 9 10 11 12 13 14 15 16 17 18 19 20 21 22 23 24 25 26 27 28 29 30 31 32 33 34 35 36 37 38 39 40 41 42 43 44 45 46 47 48 49 50

000
ASUS43 KIND 170609
RWRIN

WEATHER ROUNDUP FOR INDIANA
NATIONAL WEATHER SERVICE INDIANAPOLIS IN
200 AM EDT THU APR 17 2014

NOTE: "FAIR" INDICATES FEW OR NO CLOUDS BELOW 12,000 FEET WITH NO
SIGNIFICANT WEATHER AND/OR OBSTRUCTIONS TO VISIBILITY.

* - STATION DOES NOT REPORT WEATHER SUCH AS PRECIPITATION OR FOG.

+ - STATION NOT QUALITY CONTROLLED BY THE NATIONAL WEATHER SERVICE.
    USE DATA WITH CAUTION...ESPECIALLY DEWPOINT AND RELATIVE
    HUMIDITY OBSERVATIONS.

INZ001>003-010>013-019-020-170700-
NORTHWEST INDIANA

CITY           SKY/WX    TMP DP  RH WIND       PRES   REMARKS
GARY /AIRPORT/ FAIR      45  24  43 SE12G20   30.19S
LA PORTE +     FAIR      39  24  54 SE8       30.22S
6HR MIN TEMP:  39; 6HR MAX TEMP:  46;

MICHIGAN CITY+ FAIR      41  23  48 SE6       30.22S
MONTICELLO +   FAIR      40  26  58 SE5       30.22R
RENSSELAER +   FAIR      41  27  56 CALM      30.21S
VALPARAISO     FAIR      39  24  55 SE8       30.22R
6HR MIN TEMP:  39; 6HR MAX TEMP:  47;


$$

LMZ046-743>745-170700-
SOUTHERN LAKE MICHIGAN

STATION/POSITION TIME  TEMP WIND        PRES
                       AIR  DIR/SP/G
                 (UTC) (F)  (DEG/KT/KT) (MB)
MICHIGAN CITY    0600   43  130/ 14/ 23   N/A

$$

INZ004-005-014>016-021>024-170700-
NORTH CENTRAL INDIANA

CITY           SKY/WX    TMP DP  RH WIND       PRES   REMARKS
GOSHEN         FAIR      39  26  59 SE12      30.24S
6HR MIN TEMP:  39; 6HR MAX TEMP:  47;

LOGANSPORT +   FAIR      34  27  75 SE10      30.23R WCI  26
PERU/GRISSOM   FAIR      37  29  72 SE10      30.23R
6HR MIN TEMP:  37; 6HR MAX TEMP:  47;

ROCHESTER +    FAIR      41  28  60 SE10      30.24S
SOUTH BEND     FAIR      42  23  46 SE14      30.24R
6HR MIN TEMP:  42; 6HR MAX TEMP:  47;

WARSAW +       FAIR      37  27  65 SE9       30.24S

$$

INZ006>009-017-018-025>027-170700-
NORTHEAST INDIANA

CITY           SKY/WX    TMP DP  RH WIND       PRES   REMARKS
AUBURN +       FAIR      34  28  80 E7        30.28F WCI  28
FORT WAYNE     FAIR      36  26  67 E10       30.27F
6HR MIN TEMP:  35; 6HR MAX TEMP:  45;


$$

INZ028-029-035-036-043>045-051>053-170700-
WEST CENTRAL INDIANA

CITY           SKY/WX    TMP DP  RH WIND       PRES   REMARKS
LAFAYETTE      FAIR      34  24  67 E7        30.21R WCI  28
6HR MIN TEMP:  34; 6HR MAX TEMP:  48;

TERRE HAUTE    FAIR      40  26  57 SE5       30.21R
6HR MIN TEMP:  40; 6HR MAX TEMP:  51;


$$

INZ030>032-037>040-046>048-054>057-064-065-170700-
CENTRAL INDIANA

CITY           SKY/WX    TMP DP  RH WIND       PRES   REMARKS
CP ATTERBURY + FAIR      41  27  56 SE6       30.23S
INDIANAPOLIS   FAIR      40  23  50 SE10      30.22S
6HR MIN TEMP:  39; 6HR MAX TEMP:  46;

-EAGLE CREEK   FAIR      41  22  46 SE3       30.22R
6HR MIN TEMP:  41; 6HR MAX TEMP:  48;

KOKOMO *+      FAIR      37  27  65 SE13      30.22F
MARION +       FAIR      36  26  66 SE9       30.24S
MT COMFORT *+  FAIR      37  27  65 SE6       30.23S
SHELBYVILLE    FAIR      41  25  53 SE9       30.22F
6HR MIN TEMP:  37; 6HR MAX TEMP:  49;

ZIONSVILLE +   FAIR      40  23  51 SE7       30.23S
6HR MIN TEMP:  39; 6HR MAX TEMP:  47;


$$

INZ033-034-041-042-049-050-058-059-170700-
EAST CENTRAL INDIANA

CITY           SKY/WX    TMP DP  RH WIND       PRES   REMARKS
MUNCIE         FAIR      38  25  59 SE8       30.24F
6HR MIN TEMP:  34; 6HR MAX TEMP:  45;


$$

INZ060-061-067>069-081>083-085>088-170700-
SOUTHWEST INDIANA

CITY           SKY/WX    TMP DP  RH WIND       PRES   REMARKS
EVANSVILLE     FAIR      46  28  49 E3        30.20R
6HR MIN TEMP:  46; 6HR MAX TEMP:  53;

HUNTINGBURG *+ FAIR      43  27  52 S7        30.21S
6HR MIN TEMP:  43; 6HR MAX TEMP:  52;

WASHINGTON +   FAIR      40  32  74 S5        30.20S
6HR MIN TEMP:  39; 6HR MAX TEMP:  49;


$$

INZ062-063-066-070>080-084-089>092-170700-
SOUTH CENTRAL AND SOUTHEAST INDIANA

CITY           SKY/WX    TMP DP  RH WIND       PRES   REMARKS
BLOOMINGTON    FAIR      42  23  46 SE8       30.21R
6HR MIN TEMP:  42; 6HR MAX TEMP:  49;

SEYMOUR +      FAIR      32  18  55 CALM      30.23F

$$




USA.gov is the U.S. government's official web portal to all federal, state and local government web resources and services.